sat.trackr.live / text

‹ back to catalog

STARLINK-31814

NORAD 59802 · 2024-093W

PAYLOAD ACTIVE UNKNOWN

§ Identity

Operator
Country
US
Launch date
2024-05-18
Launch site
AFETR
Launch vehicle
Mass (kg)
RCS (m²)

Purposes: comms

External: N2YO · Heavens-Above · Gunter

§ Orbital elements

Epoch: 2026-09-21T05:11:03.253632Z

Period
94.27 min
Inclination
43.0015°
Eccentricity
0.0000803
Mean motion
15.27575445 rev/d
Perigee alt
482.5 km
Apogee alt
483.6 km
Semi-major
6,861.2 km
B*
1.1347e-5
RAAN
185.0744°
Arg perigee
259.4528°
Mean anomaly
100.6233°
Rev number
13,259

§ Raw data

STARLINK-318141 59802U 24093W   26264.21600988  .00000050  00000+0  11347-4 0  99902 59802  43.0015 185.0744 0000803 259.4528 100.6233 15.27575445132594

JSON: /api/v1/satellites/59802 · /tle

For live sub-satellite position, see the globe view (requires WebGL).

§ Visibility from observer

Set your observer location to see the next 7 days of passes ≥ 10°. The values pass through the URL so the page stays shareable.

No JS? Fill the form by hand. The geolocation button needs JavaScript.